| time (UTC) | temp F | wind direction | speed MPH | gust MPH | rain 1hr in | rain 24hr in | rain mn in | humidity % | barometer mb |
| 20260904171002 | 72 | 236 | 2.0 | 4.0 | 0.00 | 0.83 | 0.11 | 97 | 1014.4 |
| 20260904170841 | 72 | 235 | 1.0 | 3.0 | 0.00 | 0.83 | 0.11 | 97 | 1014.4 |
| 20260904170523 | 72 | 234 | 1.0 | 3.0 | 0.00 | 0.83 | 0.11 | 97 | 1014.4 |
| 20260904170341 | 72 | 234 | 1.0 | 3.0 | 0.00 | 0.84 | 0.11 | 97 | 1014.4 |
| 20260904165841 | 72 | 234 | 1.0 | 3.0 | 0.00 | 0.96 | 0.11 | 97 | 1014.5 |
| 20260904165502 | 72 | 234 | 0.0 | 3.0 | 0.00 | 0.97 | 0.11 | 97 | 1014.5 |
| 20260904165341 | 72 | 234 | 0.0 | 2.0 | 0.00 | 0.97 | 0.11 | 97 | 1014.5 |
| 20260904165002 | 72 | 234 | 0.0 | 2.0 | 0.00 | 0.97 | 0.11 | 97 | 1014.5 |
| 20260904164841 | 71 | 234 | 0.0 | 2.0 | 0.00 | 0.97 | 0.11 | 97 | 1014.5 |
| 20260904164523 | 71 | 234 | 1.0 | 3.0 | 0.00 | 0.97 | 0.11 | 97 | 1014.7 |
| 20260904164341 | 71 | 234 | 1.0 | 3.0 | 0.00 | 0.97 | 0.11 | 97 | 1014.7 |
| 20260904164001 | 71 | 234 | 1.0 | 3.0 | 0.00 | 0.98 | 0.11 | 96 | 1014.8 |
| 20260904163840 | 71 | 234 | 1.0 | 3.0 | 0.00 | 0.98 | 0.11 | 97 | 1014.9 |
| 20260904163523 | 71 | 234 | 1.0 | 2.0 | 0.00 | 0.99 | 0.11 | 97 | 1015.0 |
| 20260904163340 | 71 | 234 | 1.0 | 2.0 | 0.00 | 0.99 | 0.11 | 96 | 1015.0 |
| 20260904163002 | 71 | 234 | 1.0 | 2.0 | 0.00 | 0.99 | 0.11 | 96 | 1014.9 |
| 20260904162840 | 71 | 234 | 0.0 | 2.0 | 0.00 | 0.99 | 0.11 | 96 | 1015.0 |
| 20260904162502 | 71 | 234 | 1.0 | 3.0 | 0.00 | 0.99 | 0.11 | 97 | 1015.0 |
| 20260904162340 | 71 | 234 | 1.0 | 3.0 | 0.00 | 0.99 | 0.11 | 96 | 1015.1 |
| 20260904162001 | 71 | 234 | 1.0 | 4.0 | 0.01 | 0.99 | 0.11 | 97 | 1015.3 |
| 20260904161840 | 71 | 234 | 1.0 | 4.0 | 0.01 | 0.99 | 0.11 | 97 | 1015.2 |
| 20260904161502 | 72 | 232 | 2.0 | 4.0 | 0.01 | 0.99 | 0.11 | 97 | 1015.3 |
| 20260904161340 | 71 | 229 | 1.0 | 4.0 | 0.01 | 0.99 | 0.11 | 97 | 1015.2 |
| 20260904161002 | 71 | 223 | 1.0 | 4.0 | 0.01 | 0.99 | 0.11 | 97 | 1015.3 |
| 20260904160840 | 71 | 217 | 1.0 | 4.0 | 0.01 | 0.99 | 0.11 | 97 | 1015.4 |
| 20260904160502 | 71 | 208 | 1.0 | 4.0 | 0.02 | 1.00 | 0.11 | 97 | 1015.3 |
| 20260904160340 | 71 | 211 | 1.0 | 4.0 | 0.02 | 1.00 | 0.11 | 97 | 1015.2 |
| 20260904160002 | 71 | 245 | 2.0 | 4.0 | 0.02 | 1.01 | 0.11 | 97 | 1015.1 |
| 20260904155840 | 71 | 271 | 1.0 | 4.0 | 0.03 | 1.02 | 0.11 | 97 | 1015.4 |
| 20260904155502 | 71 | 302 | 1.0 | 4.0 | 0.03 | 1.05 | 0.11 | 97 | 1015.5 |
| 20260904155340 | 71 | 306 | 1.0 | 4.0 | 0.03 | 1.11 | 0.11 | 97 | 1015.7 |
| 20260904155009 | 71 | 331 | 0.0 | 3.0 | 0.04 | 1.13 | 0.11 | 97 | 1015.7 |
| 20260904154840 | 71 | 331 | 1.0 | 4.0 | 0.04 | 1.13 | 0.11 | 97 | 1015.9 |
| 20260904154502 | 71 | 323 | 1.0 | 5.0 | 0.04 | 1.13 | 0.11 | 97 | 1015.9 |
| 20260904154340 | 71 | 320 | 1.0 | 5.0 | 0.04 | 1.13 | 0.11 | 97 | 1016.0 |
| 20260904154002 | 71 | 310 | 1.0 | 5.0 | 0.04 | 1.13 | 0.11 | 97 | 1016.1 |
| 20260904153840 | 71 | 275 | 1.0 | 5.0 | 0.05 | 1.13 | 0.11 | 97 | 1015.9 |
| 20260904153502 | 71 | 266 | 1.0 | 3.0 | 0.05 | 1.13 | 0.11 | 97 | 1015.8 |
| 20260904153340 | 71 | 274 | 1.0 | 3.0 | 0.05 | 1.13 | 0.11 | 97 | 1015.7 |
| 20260904153002 | 71 | 279 | 1.0 | 3.0 | 0.05 | 1.13 | 0.11 | 97 | 1015.7 |
| 20260904152839 | 70 | 290 | 1.0 | 3.0 | 0.05 | 1.13 | 0.11 | 97 | 1015.9 |
| 20260904152523 | 70 | 291 | 1.0 | 3.0 | 0.05 | 1.13 | 0.11 | 97 | 1016.1 |
| 20260904152339 | 70 | 291 | 0.0 | 2.0 | 0.05 | 1.13 | 0.11 | 97 | 1016.2 |
| 20260904152002 | 70 | 291 | 0.0 | 2.0 | 0.05 | 1.12 | 0.10 | 97 | 1016.2 |
| 20260904151839 | 70 | 291 | 0.0 | 2.0 | 0.05 | 1.12 | 0.10 | 96 | 1016.2 |
| 20260904151501 | 70 | 291 | 0.0 | 1.0 | 0.05 | 1.12 | 0.10 | 96 | 1016.4 |
| 20260904151339 | 70 | 291 | 0.0 | 1.0 | 0.05 | 1.12 | 0.10 | 97 | 1016.3 |
| 20260904151002 | 70 | 291 | 0.0 | 2.0 | 0.06 | 1.12 | 0.10 | 96 | 1016.2 |
| 20260904150839 | 70 | 291 | 0.0 | 2.0 | 0.06 | 1.12 | 0.10 | 96 | 1016.3 |
| 20260904150502 | 70 | 291 | 1.0 | 3.0 | 0.05 | 1.11 | 0.09 | 96 | 1016.5 |
| 20260904150339 | 70 | 291 | 1.0 | 4.0 | 0.05 | 1.11 | 0.09 | 96 | 1016.5 |
| 20260904150002 | 70 | 292 | 1.0 | 4.0 | 0.05 | 1.10 | 0.08 | 96 | 1016.5 |
| 20260904145839 | 70 | 292 | 1.0 | 4.0 | 0.05 | 1.10 | 0.08 | 96 | 1016.5 |
| 20260904145502 | 70 | 293 | 1.0 | 4.0 | 0.05 | 1.10 | 0.08 | 96 | 1016.4 |
| 20260904145339 | 70 | 294 | 1.0 | 3.0 | 0.06 | 1.10 | 0.08 | 96 | 1016.4 |
| 20260904145002 | 70 | 296 | 1.0 | 3.0 | 0.05 | 1.09 | 0.07 | 96 | 1016.4 |
| 20260904144839 | 70 | 296 | 1.0 | 3.0 | 0.05 | 1.09 | 0.07 | 96 | 1016.4 |
| 20260904144502 | 70 | 297 | 1.0 | 3.0 | 0.05 | 1.09 | 0.07 | 96 | 1016.4 |
| 20260904144339 | 70 | 297 | 1.0 | 3.0 | 0.06 | 1.09 | 0.07 | 96 | 1016.3 |
| 20260904144005 | 70 | 297 | 1.0 | 2.0 | 0.06 | 1.09 | 0.07 | 96 | 1016.3 |
| 20260904143839 | 70 | 297 | 1.0 | 2.0 | 0.05 | 1.08 | 0.06 | 96 | 1016.3 |
| 20260904143523 | 70 | 297 | 1.0 | 2.0 | 0.05 | 1.08 | 0.06 | 96 | 1016.3 |
| 20260904143339 | 70 | 297 | 1.0 | 2.0 | 0.05 | 1.08 | 0.06 | 96 | 1016.3 |
| 20260904143005 | 70 | 297 | 1.0 | 2.0 | 0.05 | 1.08 | 0.06 | 96 | 1016.4 |
| 20260904142838 | 70 | 297 | 1.0 | 2.0 | 0.05 | 1.08 | 0.06 | 96 | 1016.4 |
| 20260904142524 | 70 | 297 | 0.0 | 2.0 | 0.05 | 1.08 | 0.06 | 96 | 1016.5 |
| 20260904142338 | 70 | 297 | 0.0 | 2.0 | 0.05 | 1.08 | 0.06 | 96 | 1016.4 |
| 20260904142002 | 70 | 297 | 0.0 | 1.0 | 0.04 | 1.07 | 0.05 | 96 | 1016.3 |
| 20260904141838 | 70 | 297 | 0.0 | 2.0 | 0.04 | 1.07 | 0.05 | 96 | 1016.1 |
| 20260904141502 | 70 | 297 | 0.0 | 2.0 | 0.04 | 1.07 | 0.05 | 96 | 1016.0 |
| 20260904141338 | 70 | 297 | 0.0 | 2.0 | 0.04 | 1.07 | 0.05 | 96 | 1016.0 |
| 20260904141002 | 70 | 297 | 0.0 | 2.0 | 0.03 | 1.06 | 0.04 | 96 | 1016.0 |
| 20260904140838 | 70 | 297 | 1.0 | 2.0 | 0.03 | 1.06 | 0.04 | 96 | 1016.0 |
| 20260904140505 | 70 | 297 | 1.0 | 3.0 | 0.03 | 1.06 | 0.04 | 96 | 1015.9 |
| 20260904140338 | 70 | 297 | 1.0 | 3.0 | 0.03 | 1.06 | 0.04 | 96 | 1016.0 |
| 20260904140002 | 70 | 297 | 2.0 | 3.0 | 0.02 | 1.05 | 0.03 | 96 | 1016.0 |
| 20260904135838 | 70 | 292 | 2.0 | 3.0 | 0.02 | 1.05 | 0.03 | 96 | 1016.2 |
| 20260904135523 | 70 | 283 | 2.0 | 3.0 | 0.01 | 1.04 | 0.03 | 96 | 1016.3 |
| 20260904135338 | 70 | 263 | 1.0 | 3.0 | 0.01 | 1.04 | 0.02 | 96 | 1016.3 |
| 20260904135002 | 70 | 163 | 1.0 | 3.0 | 0.01 | 1.04 | 0.02 | 96 | 1016.4 |
| 20260904134838 | 70 | 147 | 1.0 | 2.0 | 0.01 | 1.04 | 0.02 | 96 | 1016.5 |
| 20260904134502 | 70 | 147 | 1.0 | 3.0 | 0.01 | 1.04 | 0.02 | 96 | 1016.4 |
| 20260904134338 | 70 | 147 | 1.0 | 3.0 | 0.00 | 1.03 | 0.01 | 96 | 1016.4 |
| 20260904134002 | 70 | 147 | 1.0 | 3.0 | 0.00 | 1.03 | 0.01 | 96 | 1016.3 |
| 20260904133838 | 70 | 146 | 0.0 | 3.0 | 0.00 | 1.03 | 0.01 | 96 | 1016.2 |
| 20260904133523 | 70 | 146 | 0.0 | 1.0 | 0.00 | 1.03 | 0.01 | 96 | 1016.0 |
| 20260904133338 | 70 | 146 | 0.0 | 1.0 | 0.00 | 1.03 | 0.01 | 96 | 1015.9 |
| 20260904133003 | 70 | 146 | 0.0 | 1.0 | 0.00 | 1.03 | 0.01 | 96 | 1015.9 |
| 20260904132838 | 70 | 146 | 0.0 | 1.0 | 0.01 | 1.03 | 0.01 | 96 | 1015.9 |
| 20260904132502 | 70 | 146 | 0.0 | 1.0 | 0.01 | 1.03 | 0.01 | 96 | 1015.9 |
| 20260904132338 | 70 | 146 | 0.0 | 2.0 | 0.01 | 1.03 | 0.01 | 96 | 1015.9 |
| 20260904132002 | 70 | 146 | 1.0 | 2.0 | 0.01 | 1.03 | 0.01 | 96 | 1016.1 |
| 20260904131838 | 70 | 146 | 1.0 | 2.0 | 0.01 | 1.03 | 0.01 | 96 | 1016.1 |
| 20260904131502 | 70 | 146 | 1.0 | 2.0 | 0.01 | 1.03 | 0.01 | 96 | 1016.1 |
| 20260904131337 | 70 | 146 | 1.0 | 2.0 | 0.01 | 1.03 | 0.01 | 96 | 1016.1 |
| 20260904131002 | 70 | 146 | 0.0 | 2.0 | 0.01 | 1.03 | 0.01 | 96 | 1016.0 |
| 20260904130837 | 70 | 146 | 0.0 | 2.0 | 0.01 | 1.03 | 0.01 | 96 | 1015.7 |
| 20260904130502 | 70 | 0 | 0.0 | 0.0 | 0.01 | 1.03 | 0.01 | 96 | 1015.7 |
| 20260904130337 | 70 | 146 | 0.0 | 2.0 | 0.01 | 1.03 | 0.01 | 96 | 1015.7 |
| 20260904130002 | 70 | 146 | 0.0 | 2.0 | 0.01 | 1.03 | 0.01 | 96 | 1015.7 |
| 20260904125837 | 70 | 146 | 1.0 | 2.0 | 0.01 | 1.03 | 0.01 | 96 | 1015.6 |
| 20260904125502 | 70 | 146 | 1.0 | 2.0 | 0.01 | 1.03 | 0.01 | 96 | 1015.5 |
| 20260904125337 | 70 | 146 | 1.0 | 2.0 | 0.01 | 1.03 | 0.01 | 96 | 1015.6 |
| 20260904125005 | 70 | 146 | 0.0 | 2.0 | 0.01 | 1.03 | 0.01 | 96 | 1015.5 |
| 20260904124837 | 70 | 146 | 0.0 | 2.0 | 0.01 | 1.03 | 0.01 | 96 | 1015.8 |
| 20260904124502 | 70 | 146 | 0.0 | 2.0 | 0.01 | 1.03 | 0.01 | 96 | 1015.7 |
| 20260904124337 | 70 | 146 | 0.0 | 2.0 | 0.01 | 1.03 | 0.01 | 96 | 1015.7 |
| 20260904124002 | 70 | 146 | 0.0 | 2.0 | 0.01 | 1.03 | 0.01 | 96 | 1015.6 |
| 20260904123837 | 70 | 146 | 0.0 | 1.0 | 0.01 | 1.03 | 0.01 | 96 | 1015.5 |
| 20260904123505 | 70 | 146 | 0.0 | 2.0 | 0.01 | 1.03 | 0.01 | 96 | 1015.5 |
| 20260904123337 | 70 | 146 | 1.0 | 2.0 | 0.01 | 1.03 | 0.01 | 96 | 1015.5 |
| 20260904123002 | 70 | 146 | 1.0 | 2.0 | 0.01 | 1.03 | 0.01 | 96 | 1015.5 |
| 20260904122837 | 70 | 146 | 1.0 | 2.0 | 0.00 | 1.02 | 0.00 | 96 | 1015.5 |
| 20260904122502 | 70 | 146 | 0.0 | 2.0 | 0.00 | 1.02 | 0.00 | 96 | 1015.3 |
| 20260904122337 | 70 | 146 | 0.0 | 1.0 | 0.00 | 1.02 | 0.00 | 96 | 1015.3 |
| 20260904122005 | 70 | 146 | 0.0 | 1.0 | 0.00 | 1.02 | 0.00 | 96 | 1015.4 |
| 20260904121837 | 70 | 146 | 0.0 | 2.0 | 0.00 | 1.02 | 0.00 | 96 | 1015.4 |
| 20260904121503 | 70 | 146 | 0.0 | 2.0 | 0.00 | 1.02 | 0.00 | 96 | 1015.7 |
| 20260904121337 | 70 | 146 | 1.0 | 2.0 | 0.00 | 1.02 | 0.00 | 96 | 1015.9 |
| 20260904121005 | 70 | 146 | 1.0 | 3.0 | 0.00 | 1.02 | 0.00 | 96 | 1015.9 |
| 20260904120837 | 70 | 146 | 1.0 | 3.0 | 0.00 | 1.02 | 0.00 | 96 | 1015.8 |
| 20260904120502 | 70 | 146 | 1.0 | 3.0 | 0.00 | 1.02 | 0.00 | 96 | 1015.7 |
| 20260904120336 | 70 | 146 | 1.0 | 3.0 | 0.00 | 1.02 | 0.00 | 96 | 1015.6 |
| 20260904120003 | 70 | 146 | 1.0 | 2.0 | 0.00 | 1.02 | 0.00 | 96 | 1015.4 |
| 20260904115836 | 70 | 146 | 1.0 | 2.0 | 0.00 | 1.02 | 0.00 | 96 | 1015.5 |
| 20260904115502 | 70 | 150 | 1.0 | 5.0 | 0.00 | 1.02 | 0.00 | 96 | 1015.5 |
| 20260904115336 | 70 | 156 | 2.0 | 5.0 | 0.00 | 1.02 | 0.00 | 96 | 1015.4 |
| 20260904115002 | 70 | 160 | 2.0 | 5.0 | 0.00 | 1.02 | 0.00 | 96 | 1015.2 |
| 20260904114836 | 70 | 162 | 2.0 | 5.0 | 0.00 | 1.02 | 0.00 | 96 | 1015.1 |
| 20260904114502 | 70 | 167 | 2.0 | 4.0 | 0.00 | 1.02 | 0.00 | 97 | 1015.1 |
| 20260904114336 | 70 | 167 | 1.0 | 4.0 | 0.00 | 1.02 | 0.00 | 96 | 1015.2 |
| 20260904114024 | 70 | 167 | 1.0 | 4.0 | 0.00 | 1.02 | 0.00 | 96 | 1015.1 |
| 20260904113836 | 70 | 167 | 1.0 | 4.0 | 0.00 | 1.02 | 0.00 | 96 | 1014.7 |
| 20260904113502 | 70 | 167 | 1.0 | 3.0 | 0.00 | 1.02 | 0.00 | 96 | 1015.1 |
| 20260904113336 | 70 | 167 | 1.0 | 4.0 | 0.00 | 1.02 | 0.00 | 96 | 1015.3 |
| 20260904113002 | 70 | 167 | 1.0 | 4.0 | 0.00 | 1.02 | 0.00 | 96 | 1015.4 |
| 20260904112836 | 70 | 167 | 1.0 | 5.0 | 0.00 | 1.02 | 0.00 | 96 | 1015.1 |
| 20260904112523 | 70 | 167 | 1.0 | 5.0 | 0.00 | 1.02 | 0.00 | 96 | 1015.0 |
| 20260904112336 | 70 | 167 | 1.0 | 5.0 | 0.00 | 1.02 | 0.00 | 97 | 1014.9 |
| 20260904112024 | 70 | 167 | 1.0 | 5.0 | 0.00 | 1.02 | 0.00 | 97 | 1014.9 |
| 20260904111836 | 70 | 167 | 1.0 | 4.0 | 0.00 | 1.02 | 0.00 | 97 | 1014.7 |
| 20260904111502 | 70 | 167 | 1.0 | 4.0 | 0.00 | 1.02 | 0.00 | 97 | 1014.7 |
| 20260904111336 | 70 | 167 | 1.0 | 4.0 | 0.00 | 1.02 | 0.00 | 97 | 1014.8 |
| 20260904111023 | 70 | 167 | 1.0 | 4.0 | 0.00 | 1.02 | 0.00 | 97 | 1014.7 |
| 20260904110836 | 70 | 167 | 1.0 | 4.0 | 0.00 | 1.02 | 0.00 | 97 | 1014.7 |
| 20260904110502 | 70 | 167 | 1.0 | 3.0 | 0.00 | 1.02 | 0.00 | 97 | 1014.9 |
| 20260904110336 | 70 | 167 | 1.0 | 4.0 | 0.00 | 1.02 | 0.00 | 97 | 1014.9 |
| 20260904110003 | 70 | 168 | 1.0 | 4.0 | 0.00 | 1.02 | 0.00 | 97 | 1014.9 |
| 20260904105836 | 70 | 166 | 2.0 | 6.0 | 0.00 | 1.02 | 0.00 | 97 | 1014.9 |
| 20260904105502 | 70 | 159 | 2.0 | 6.0 | 0.00 | 1.02 | 0.00 | 97 | 1014.8 |
| 20260904105336 | 70 | 153 | 2.0 | 6.0 | 0.00 | 1.02 | 0.00 | 97 | 1014.8 |
| 20260904105024 | 69 | 148 | 2.0 | 6.0 | 0.00 | 1.02 | 0.00 | 97 | 1014.9 |
| 20260904104836 | 69 | 138 | 1.0 | 3.0 | 0.00 | 1.02 | 0.00 | 97 | 1014.9 |
| 20260904104503 | 69 | 136 | 1.0 | 3.0 | 0.00 | 1.02 | 0.00 | 97 | 1014.9 |
| 20260904104335 | 69 | 127 | 1.0 | 3.0 | 0.00 | 1.02 | 0.00 | 97 | 1014.8 |
| 20260904104005 | 69 | 110 | 2.0 | 4.0 | 0.00 | 1.02 | 0.00 | 97 | 1014.6 |
| 20260904103835 | 69 | 100 | 2.0 | 4.0 | 0.00 | 1.02 | 0.00 | 97 | 1014.7 |
| 20260904103502 | 69 | 83 | 2.0 | 4.0 | 0.00 | 1.02 | 0.00 | 97 | 1014.6 |
| 20260904103335 | 69 | 78 | 2.0 | 4.0 | 0.00 | 1.02 | 0.00 | 97 | 1014.5 |
| 20260904103006 | 69 | 69 | 2.0 | 4.0 | 0.00 | 1.02 | 0.00 | 97 | 1014.4 |
| 20260904102835 | 69 | 61 | 2.0 | 3.0 | 0.00 | 1.02 | 0.00 | 97 | 1014.4 |
| 20260904102502 | 69 | 54 | 2.0 | 3.0 | 0.00 | 1.02 | 0.00 | 97 | 1014.2 |
| 20260904102335 | 69 | 49 | 2.0 | 3.0 | 0.00 | 1.02 | 0.00 | 96 | 1014.2 |
| 20260904102003 | 69 | 42 | 1.0 | 3.0 | 0.00 | 1.02 | 0.00 | 96 | 1014.0 |
| 20260904101835 | 69 | 38 | 1.0 | 3.0 | 0.00 | 1.02 | 0.00 | 96 | 1014.0 |
| 20260904101502 | 69 | 38 | 1.0 | 2.0 | 0.00 | 1.02 | 0.00 | 97 | 1014.1 |
| 20260904101335 | 69 | 38 | 1.0 | 2.0 | 0.00 | 1.02 | 0.00 | 97 | 1014.2 |
| 20260904101002 | 69 | 38 | 1.0 | 2.0 | 0.00 | 1.02 | 0.00 | 97 | 1014.2 |
| 20260904100835 | 69 | 38 | 1.0 | 3.0 | 0.00 | 1.02 | 0.00 | 97 | 1014.2 |
| 20260904100503 | 69 | 38 | 1.0 | 3.0 | 0.00 | 1.02 | 0.00 | 97 | 1014.0 |
| 20260904100335 | 69 | 38 | 1.0 | 3.0 | 0.00 | 1.02 | 0.00 | 97 | 1013.9 |
| 20260904100002 | 69 | 35 | 1.0 | 3.0 | 0.00 | 1.02 | 0.00 | 96 | 1013.9 |
| 20260904095835 | 69 | 34 | 1.0 | 3.0 | 0.00 | 1.02 | 0.00 | 96 | 1013.8 |
| 20260904095503 | 69 | 32 | 2.0 | 3.0 | 0.00 | 1.02 | 0.00 | 96 | 1013.7 |
| 20260904095335 | 69 | 31 | 2.0 | 3.0 | 0.00 | 1.02 | 0.00 | 96 | 1013.8 |
| 20260904095003 | 69 | 31 | 2.0 | 3.0 | 0.00 | 1.02 | 0.00 | 96 | 1013.7 |
| 20260904094835 | 69 | 31 | 1.0 | 3.0 | 0.00 | 1.02 | 0.00 | 96 | 1013.8 |
| 20260904094502 | 69 | 30 | 1.0 | 4.0 | 0.00 | 1.02 | 0.00 | 97 | 1013.9 |
| 20260904094335 | 69 | 30 | 1.0 | 4.0 | 0.00 | 1.02 | 0.00 | 97 | 1014.0 |
| 20260904094003 | 68 | 30 | 1.0 | 4.0 | 0.00 | 1.02 | 0.00 | 97 | 1014.1 |
| 20260904093835 | 68 | 30 | 1.0 | 4.0 | 0.00 | 1.02 | 0.00 | 97 | 1014.2 |
| 20260904093502 | 68 | 30 | 0.0 | 2.0 | 0.00 | 1.02 | 0.00 | 96 | 1014.3 |
| 20260904093335 | 68 | 30 | 0.0 | 2.0 | 0.00 | 1.02 | 0.00 | 96 | 1014.3 |
| 20260904093002 | 68 | 30 | 0.0 | 2.0 | 0.00 | 1.02 | 0.00 | 96 | 1014.3 |
| 20260904092835 | 68 | 30 | 1.0 | 2.0 | 0.00 | 1.02 | 0.00 | 96 | 1014.4 |
| 20260904092524 | 69 | 30 | 0.0 | 2.0 | 0.00 | 1.02 | 0.00 | 96 | 1014.6 |
| 20260904092335 | 69 | 30 | 1.0 | 2.0 | 0.00 | 1.02 | 0.00 | 96 | 1014.7 |
| 20260904092005 | 69 | 30 | 1.0 | 2.0 | 0.00 | 1.02 | 0.00 | 96 | 1014.7 |
| 20260904091835 | 69 | 30 | 0.0 | 1.0 | 0.00 | 1.02 | 0.00 | 96 | 1014.8 |
| 20260904091503 | 69 | 30 | 0.0 | 2.0 | 0.00 | 1.02 | 0.00 | 96 | 1014.7 |
| 20260904091334 | 69 | 30 | 0.0 | 2.0 | 0.00 | 1.02 | 0.00 | 96 | 1014.6 |
| 20260904091003 | 69 | 30 | 0.0 | 2.0 | 0.00 | 1.02 | 0.00 | 96 | 1014.7 |
| 20260904090834 | 69 | 30 | 1.0 | 3.0 | 0.00 | 1.02 | 0.00 | 96 | 1014.7 |
| 20260904090502 | 69 | 30 | 1.0 | 3.0 | 0.00 | 1.02 | 0.00 | 96 | 1014.7 |
| 20260904090334 | 69 | 30 | 1.0 | 3.0 | 0.00 | 1.03 | 0.00 | 97 | 1014.6 |
| 20260904090003 | 69 | 30 | 1.0 | 3.0 | 0.00 | 1.03 | 0.00 | 97 | 1014.7 |
| 20260904085834 | 69 | 30 | 1.0 | 3.0 | 0.00 | 1.03 | 0.00 | 97 | 1014.7 |
| 20260904085502 | 69 | 30 | 1.0 | 2.0 | 0.00 | 1.03 | 0.00 | 97 | 1014.8 |
| 20260904085334 | 68 | 30 | 0.0 | 2.0 | 0.00 | 1.03 | 0.00 | 97 | 1014.9 |
| 20260904085002 | 68 | 30 | 0.0 | 2.0 | 0.00 | 1.03 | 0.00 | 97 | 1014.7 |
| 20260904084834 | 68 | 30 | 0.0 | 2.0 | 0.00 | 1.03 | 0.00 | 97 | 1014.6 |
| 20260904084503 | 68 | 30 | 1.0 | 4.0 | 0.00 | 1.03 | 0.00 | 97 | 1014.6 |
| 20260904084334 | 68 | 30 | 0.0 | 4.0 | 0.00 | 1.03 | 0.00 | 97 | 1014.7 |
| 20260904084003 | 68 | 29 | 0.0 | 4.0 | 0.00 | 1.03 | 0.00 | 97 | 1014.8 |
| 20260904083834 | 68 | 29 | 0.0 | 4.0 | 0.00 | 1.03 | 0.00 | 97 | 1014.8 |
| 20260904083502 | 68 | 31 | 0.0 | 3.0 | 0.00 | 1.03 | 0.00 | 97 | 1014.9 |
| 20260904083334 | 68 | 31 | 0.0 | 3.0 | 0.00 | 1.03 | 0.00 | 96 | 1014.9 |
| 20260904083003 | 68 | 33 | 0.0 | 3.0 | 0.00 | 1.03 | 0.00 | 96 | 1015.0 |
| 20260904082834 | 68 | 34 | 0.0 | 3.0 | 0.00 | 1.03 | 0.00 | 96 | 1015.0 |
| 20260904082503 | 68 | 34 | 0.0 | 2.0 | 0.00 | 1.03 | 0.00 | 96 | 1015.0 |
| 20260904082334 | 68 | 34 | 0.0 | 2.0 | 0.00 | 1.03 | 0.00 | 96 | 1015.0 |
| 20260904082003 | 68 | 34 | 0.0 | 2.0 | 0.00 | 1.03 | 0.00 | 96 | 1015.0 |
| 20260904081834 | 68 | 34 | 0.0 | 1.0 | 0.00 | 1.03 | 0.00 | 96 | 1015.0 |
| 20260904081505 | 68 | 33 | 0.0 | 1.0 | 0.00 | 1.03 | 0.00 | 96 | 1014.8 |
| 20260904081334 | 68 | 33 | 0.0 | 2.0 | 0.00 | 1.03 | 0.00 | 96 | 1014.9 |
| 20260904081003 | 68 | 33 | 0.0 | 2.0 | 0.00 | 1.03 | 0.00 | 96 | 1014.7 |
| 20260904080834 | 68 | 37 | 1.0 | 4.0 | 0.00 | 1.03 | 0.00 | 96 | 1014.7 |
| 20260904080503 | 68 | 45 | 1.0 | 4.0 | 0.00 | 1.03 | 0.00 | 96 | 1014.7 |
| 20260904080334 | 68 | 47 | 1.0 | 4.0 | 0.00 | 1.03 | 0.00 | 96 | 1014.5 |
| 20260904080005 | 68 | 59 | 1.0 | 4.0 | 0.00 | 1.03 | 0.00 | 96 | 1014.5 |
| 20260904075834 | 68 | 74 | 0.0 | 2.0 | 0.00 | 1.03 | 0.00 | 96 | 1014.4 |
| 20260904075523 | 68 | 59 | 0.0 | 3.0 | 0.00 | 1.03 | 0.00 | 96 | 1014.5 |
| 20260904075334 | 68 | 21 | 0.0 | 3.0 | 0.00 | 1.04 | 0.00 | 96 | 1014.4 |
| 20260904075003 | 68 | 349 | 1.0 | 3.0 | 0.00 | 1.05 | 0.00 | 96 | 1014.2 |
| 20260904074833 | 68 | 336 | 1.0 | 4.0 | 0.00 | 1.06 | 0.00 | 96 | 1014.3 |
| 20260904074502 | 68 | 357 | 1.0 | 4.0 | 0.00 | 1.08 | 0.00 | 96 | 1014.4 |
| 20260904074333 | 68 | 10 | 1.0 | 4.0 | 0.00 | 1.09 | 0.00 | 96 | 1014.3 |
| 20260904074002 | 68 | 37 | 1.0 | 4.0 | 0.00 | 1.09 | 0.00 | 96 | 1014.5 |
| 20260904073833 | 68 | 83 | 1.0 | 3.0 | 0.00 | 1.10 | 0.00 | 96 | 1014.4 |
| 20260904073503 | 68 | 75 | 0.0 | 3.0 | 0.00 | 1.10 | 0.00 | 96 | 1014.3 |
| 20260904073333 | 68 | 50 | 1.0 | 3.0 | 0.00 | 1.10 | 0.00 | 96 | 1014.3 |
| 20260904073024 | 68 | 41 | 1.0 | 3.0 | 0.00 | 1.10 | 0.00 | 96 | 1014.4 |
| 20260904072833 | 68 | 5 | 0.0 | 2.0 | 0.00 | 1.10 | 0.00 | 96 | 1014.4 |
| 20260904072502 | 68 | 5 | 0.0 | 2.0 | 0.00 | 1.10 | 0.00 | 96 | 1014.3 |
| 20260904072333 | 68 | 18 | 1.0 | 5.0 | 0.00 | 1.10 | 0.00 | 96 | 1014.4 |
| 20260904072005 | 68 | 32 | 1.0 | 5.0 | 0.00 | 1.10 | 0.00 | 96 | 1014.5 |
| 20260904071833 | 68 | 35 | 1.0 | 5.0 | 0.00 | 1.11 | 0.00 | 96 | 1014.6 |
| 20260904071503 | 68 | 28 | 1.0 | 5.0 | 0.00 | 1.13 | 0.00 | 96 | 1014.6 |
| 20260904071333 | 69 | 2 | 1.0 | 4.0 | 0.00 | 1.14 | 0.00 | 96 | 1014.7 |
| 20260904071003 | 69 | 321 | 1.0 | 3.0 | 0.00 | 1.14 | 0.00 | 96 | 1014.7 |
| 20260904070833 | 69 | 307 | 1.0 | 4.0 | 0.00 | 1.15 | 0.00 | 96 | 1014.7 |
| 20260904070503 | 69 | 303 | 1.0 | 4.0 | 0.00 | 1.15 | 0.00 | 96 | 1014.7 |
| 20260904070333 | 69 | 301 | 0.0 | 4.0 | 0.00 | 1.15 | 0.00 | 96 | 1014.8 |
| 20260904070003 | 69 | 301 | 0.0 | 4.0 | 0.00 | 1.15 | 0.00 | 96 | 1014.9 |
| 20260904065833 | 69 | 0 | 0.0 | 0.0 | 0.00 | 1.15 | 0.00 | 96 | 1014.9 |
| 20260904065524 | 68 | 0 | 0.0 | 0.0 | 0.00 | 1.15 | 0.00 | 96 | 1015.0 |
| 20260904065333 | 69 | 0 | 0.0 | 0.0 | 0.00 | 1.15 | 0.00 | 96 | 1014.9 |
| 20260904065006 | 68 | 0 | 0.0 | 0.0 | 0.00 | 1.15 | 0.00 | 96 | 1014.9 |
| 20260904064833 | 68 | 0 | 0.0 | 0.0 | 0.00 | 1.15 | 0.00 | 96 | 1015.1 |
| 20260904064524 | 68 | 0 | 0.0 | 0.0 | 0.00 | 1.16 | 0.00 | 96 | 1015.1 |
| 20260904064333 | 68 | 0 | 0.0 | 0.0 | 0.00 | 1.18 | 0.00 | 96 | 1015.1 |
| 20260904064003 | 68 | 0 | 0.0 | 0.0 | 0.00 | 1.22 | 0.00 | 96 | 1015.2 |
| 20260904063833 | 68 | 0 | 0.0 | 0.0 | 0.00 | 1.24 | 0.00 | 96 | 1015.2 |
| 20260904063506 | 68 | 0 | 0.0 | 0.0 | 0.00 | 1.25 | 0.00 | 96 | 1015.2 |
| 20260904063332 | 68 | 0 | 0.0 | 0.0 | 0.00 | 1.25 | 0.00 | 96 | 1015.2 |
| 20260904063003 | 68 | 0 | 0.0 | 0.0 | 0.00 | 1.26 | 0.00 | 96 | 1015.0 |
| 20260904062832 | 68 | 0 | 0.0 | 0.0 | 0.00 | 1.26 | 0.00 | 96 | 1015.1 |
| 20260904062503 | 68 | 0 | 0.0 | 0.0 | 0.00 | 1.26 | 0.00 | 96 | 1015.0 |
| 20260904062332 | 68 | 0 | 0.0 | 0.0 | 0.00 | 1.26 | 0.00 | 96 | 1015.0 |
| 20260904062002 | 68 | 0 | 0.0 | 0.0 | 0.00 | 1.26 | 0.00 | 96 | 1015.0 |
| 20260904061832 | 68 | 0 | 0.0 | 0.0 | 0.00 | 1.26 | 0.00 | 96 | 1015.1 |
| 20260904061506 | 68 | 0 | 0.0 | 0.0 | 0.00 | 1.26 | 0.00 | 96 | 1015.1 |
| 20260904061332 | 68 | 0 | 0.0 | 0.0 | 0.00 | 1.26 | 0.00 | 96 | 1015.1 |
| 20260904061003 | 69 | 0 | 0.0 | 0.0 | 0.00 | 1.26 | 0.00 | 96 | 1015.1 |
| 20260904060832 | 69 | 0 | 0.0 | 0.0 | 0.00 | 1.26 | 0.00 | 96 | 1015.1 |
| 20260904060503 | 69 | 0 | 0.0 | 0.0 | 0.00 | 1.26 | 0.00 | 96 | 1015.2 |
| 20260904060332 | 69 | 0 | 0.0 | 0.0 | 0.00 | 1.26 | 0.00 | 96 | 1015.2 |
| 20260904060005 | 69 | 0 | 0.0 | 0.0 | 0.00 | 1.26 | 0.00 | 96 | 1015.1 |
| 20260904055832 | 69 | 0 | 0.0 | 0.0 | 0.00 | 1.26 | 0.00 | 96 | 1015.2 |
| 20260904055503 | 69 | 0 | 0.0 | 0.0 | 0.00 | 1.26 | 0.00 | 96 | 1015.2 |
| 20260904055332 | 69 | 0 | 0.0 | 0.0 | 0.00 | 1.26 | 0.00 | 96 | 1015.2 |
| 20260904055003 | 69 | 0 | 0.0 | 0.0 | 0.00 | 1.26 | 0.00 | 96 | 1015.2 |
| 20260904054832 | 69 | 0 | 0.0 | 0.0 | 0.00 | 1.26 | 0.00 | 96 | 1015.2 |
| 20260904054506 | 69 | 0 | 0.0 | 0.0 | 0.00 | 1.26 | 0.00 | 96 | 1015.2 |
| 20260904054332 | 69 | 0 | 0.0 | 0.0 | 0.00 | 1.26 | 0.00 | 96 | 1015.2 |
| 20260904054002 | 69 | 0 | 0.0 | 0.0 | 0.00 | 1.26 | 0.00 | 96 | 1015.2 |
| 20260904053834 | 69 | 0 | 0.0 | 0.0 | 0.00 | 1.26 | 0.00 | 96 | 1015.2 |
| 20260904053503 | 69 | 0 | 0.0 | 0.0 | 0.00 | 1.26 | 0.00 | 96 | 1015.3 |
| 20260904053332 | 69 | 0 | 0.0 | 0.0 | 0.00 | 1.26 | 0.00 | 96 | 1015.4 |
| 20260904053010 | 69 | 0 | 0.0 | 0.0 | 0.00 | 1.26 | 0.00 | 96 | 1015.3 |
| 20260904052832 | 69 | 0 | 0.0 | 0.0 | 0.00 | 1.26 | 0.00 | 96 | 1015.4 |
| 20260904052503 | 69 | 0 | 0.0 | 0.0 | 0.00 | 1.26 | 0.00 | 96 | 1015.5 |
| 20260904052332 | 69 | 0 | 0.0 | 0.0 | 0.00 | 1.26 | 0.00 | 96 | 1015.5 |
| 20260904052003 | 69 | 0 | 0.0 | 0.0 | 0.00 | 1.26 | 0.00 | 96 | 1015.5 |
| 20260904051832 | 69 | 0 | 0.0 | 0.0 | 0.00 | 1.26 | 0.00 | 96 | 1015.5 |
| 20260904051506 | 69 | 0 | 0.0 | 0.0 | 0.00 | 1.26 | 0.00 | 96 | 1015.5 |
| 20260904051332 | 69 | 0 | 0.0 | 0.0 | 0.00 | 1.27 | 0.00 | 96 | 1015.5 |
| 20260904051003 | 69 | 0 | 0.0 | 0.0 | 0.00 | 1.27 | 0.00 | 96 | 1015.5 |
| 20260904050831 | 69 | 0 | 0.0 | 0.0 | 0.00 | 1.27 | 0.00 | 96 | 1015.4 |
| 20260904050503 | 69 | 0 | 0.0 | 0.0 | 0.00 | 1.27 | 0.00 | 96 | 1015.5 |
| 20260904050331 | 69 | 0 | 0.0 | 0.0 | 0.00 | 1.27 | 0.00 | 96 | 1015.4 |
| 20260904050003 | 69 | 0 | 0.0 | 0.0 | 0.00 | 1.27 | 0.00 | 96 | 1015.5 |
| 20260904045831 | 69 | 0 | 0.0 | 0.0 | 0.00 | 1.27 | 0.00 | 96 | 1015.5 |
| 20260904045506 | 69 | 0 | 0.0 | 0.0 | 0.00 | 1.27 | 0.00 | 96 | 1015.5 |
| 20260904045331 | 69 | 0 | 0.0 | 0.0 | 0.00 | 1.27 | 0.00 | 96 | 1015.5 |
| 20260904045003 | 69 | 0 | 0.0 | 0.0 | 0.00 | 1.27 | 0.00 | 96 | 1015.5 |
| 20260904044831 | 69 | 0 | 0.0 | 0.0 | 0.00 | 1.27 | 0.00 | 95 | 1015.4 |
| 20260904044503 | 69 | 0 | 0.0 | 0.0 | 0.00 | 1.27 | 0.00 | 95 | 1015.4 |
| 20260904044331 | 69 | 0 | 0.0 | 0.0 | 0.00 | 1.27 | 0.00 | 95 | 1015.5 |
| 20260904044003 | 69 | 0 | 0.0 | 0.0 | 0.00 | 1.27 | 0.00 | 95 | 1015.5 |
| 20260904043831 | 69 | 0 | 0.0 | 0.0 | 0.00 | 1.27 | 0.00 | 96 | 1015.4 |
| 20260904043503 | 69 | 0 | 0.0 | 0.0 | 0.00 | 1.27 | 0.00 | 96 | 1015.4 |
| 20260904043331 | 69 | 0 | 0.0 | 0.0 | 0.00 | 1.27 | 0.00 | 96 | 1015.3 |
| 20260904043003 | 69 | 0 | 0.0 | 0.0 | 0.00 | 1.27 | 0.00 | 96 | 1015.3 |
| 20260904042831 | 69 | 0 | 0.0 | 0.0 | 0.00 | 1.27 | 0.00 | 96 | 1015.3 |
| 20260904042503 | 69 | 0 | 0.0 | 0.0 | 0.00 | 1.27 | 0.00 | 96 | 1015.3 |
| 20260904042331 | 69 | 0 | 0.0 | 0.0 | 0.00 | 1.27 | 0.00 | 95 | 1015.3 |
| 20260904042003 | 69 | 0 | 0.0 | 0.0 | 0.00 | 1.27 | 0.00 | 95 | 1015.2 |
| 20260904041831 | 69 | 0 | 0.0 | 0.0 | 0.00 | 1.27 | 0.00 | 95 | 1015.4 |
| 20260904041503 | 69 | 0 | 0.0 | 0.0 | 0.00 | 1.27 | 0.00 | 95 | 1015.2 |
| 20260904041331 | 69 | 0 | 0.0 | 0.0 | 0.00 | 1.27 | 0.00 | 95 | 1015.2 |
| 20260904041003 | 69 | 0 | 0.0 | 0.0 | 0.00 | 1.27 | 0.00 | 95 | 1015.2 |
| 20260904040831 | 70 | 0 | 0.0 | 0.0 | 0.00 | 1.27 | 0.00 | 95 | 1015.2 |
| 20260904040502 | 70 | 0 | 0.0 | 0.0 | 0.00 | 1.27 | 0.00 | 96 | 1015.2 |
| 20260904040331 | 70 | 0 | 0.0 | 0.0 | 0.00 | 1.27 | 0.00 | 96 | 1015.1 |
| 20260904040003 | 70 | 0 | 0.0 | 0.0 | 0.00 | 1.27 | 0.00 | 96 | 1015.0 |
| 20260904035831 | 70 | 0 | 0.0 | 0.0 | 0.00 | 1.28 | 1.27 | 96 | 1014.9 |
| 20260904035506 | 70 | 0 | 0.0 | 0.0 | 0.00 | 1.28 | 1.27 | 96 | 1014.9 |
| 20260904035330 | 70 | 0 | 0.0 | 0.0 | 0.00 | 1.28 | 1.27 | 96 | 1015.0 |
| 20260904035004 | 70 | 0 | 0.0 | 0.0 | 0.00 | 1.29 | 1.27 | 96 | 1014.9 |
| 20260904034830 | 70 | 0 | 0.0 | 0.0 | 0.00 | 1.30 | 1.27 | 96 | 1014.9 |
| 20260904034503 | 70 | 0 | 0.0 | 0.0 | 0.00 | 1.30 | 1.27 | 96 | 1014.6 |
| 20260904034330 | 70 | 0 | 0.0 | 0.0 | 0.00 | 1.31 | 1.27 | 96 | 1014.5 |
| 20260904034006 | 70 | 0 | 0.0 | 0.0 | 0.00 | 1.32 | 1.27 | 96 | 1014.5 |
| 20260904033830 | 70 | 0 | 0.0 | 0.0 | 0.00 | 1.32 | 1.27 | 95 | 1014.5 |
| 20260904033524 | 70 | 0 | 0.0 | 0.0 | 0.00 | 1.33 | 1.27 | 95 | 1014.6 |
| 20260904033330 | 70 | 0 | 0.0 | 0.0 | 0.00 | 1.34 | 1.27 | 95 | 1014.6 |
| 20260904033006 | 70 | 0 | 0.0 | 0.0 | 0.00 | 1.34 | 1.27 | 95 | 1014.6 |
| 20260904032830 | 70 | 0 | 0.0 | 0.0 | 0.00 | 1.36 | 1.27 | 95 | 1014.6 |
| 20260904032503 | 70 | 0 | 0.0 | 0.0 | 0.00 | 1.42 | 1.27 | 95 | 1014.4 |
| 20260904032330 | 70 | 0 | 0.0 | 0.0 | 0.00 | 1.45 | 1.27 | 96 | 1014.4 |
| 20260904032003 | 70 | 0 | 0.0 | 0.0 | 0.00 | 1.50 | 1.27 | 95 | 1014.5 |
| 20260904031830 | 70 | 0 | 0.0 | 0.0 | 0.00 | 1.53 | 1.27 | 96 | 1014.5 |
| 20260904031503 | 70 | 0 | 0.0 | 0.0 | 0.00 | 1.58 | 1.27 | 96 | 1014.4 |
| 20260904031330 | 70 | 0 | 0.0 | 0.0 | 0.00 | 1.59 | 1.27 | 96 | 1014.5 |
| 20260904031003 | 70 | 0 | 0.0 | 0.0 | 0.00 | 1.62 | 1.27 | 96 | 1014.5 |
| 20260904030830 | 70 | 0 | 0.0 | 0.0 | 0.00 | 1.65 | 1.27 | 96 | 1014.5 |
| 20260904030506 | 70 | 0 | 0.0 | 0.0 | 0.00 | 1.69 | 1.27 | 96 | 1014.5 |
| 20260904030330 | 70 | 0 | 0.0 | 0.0 | 0.00 | 1.70 | 1.27 | 95 | 1014.5 |
| 20260904030003 | 70 | 0 | 0.0 | 0.0 | 0.00 | 1.70 | 1.27 | 95 | 1014.4 |
| 20260904025830 | 70 | 0 | 0.0 | 0.0 | 0.00 | 1.70 | 1.27 | 95 | 1014.3 |
| 20260904025525 | 70 | 277 | 0.0 | 2.0 | 0.00 | 1.70 | 1.27 | 95 | 1014.3 |
| 20260904025330 | 70 | 277 | 0.0 | 2.0 | 0.00 | 1.70 | 1.27 | 95 | 1014.3 |
| 20260904025003 | 70 | 277 | 0.0 | 2.0 | 0.00 | 1.70 | 1.27 | 95 | 1014.3 |
| 20260904024830 | 70 | 277 | 0.0 | 2.0 | 0.00 | 1.70 | 1.27 | 95 | 1014.5 |
| 20260904024503 | 70 | 0 | 0.0 | 0.0 | 0.00 | 1.70 | 1.27 | 95 | 1014.4 |
| 20260904024329 | 70 | 0 | 0.0 | 0.0 | 0.00 | 1.70 | 1.27 | 95 | 1014.4 |
| 20260904024003 | 70 | 0 | 0.0 | 0.0 | 0.00 | 1.70 | 1.27 | 95 | 1014.3 |
| 20260904023829 | 70 | 0 | 0.0 | 0.0 | 0.00 | 1.70 | 1.27 | 95 | 1014.4 |
| 20260904023504 | 70 | 0 | 0.0 | 0.0 | 0.00 | 1.70 | 1.27 | 95 | 1014.3 |
| 20260904023329 | 70 | 0 | 0.0 | 0.0 | 0.00 | 1.70 | 1.27 | 95 | 1014.4 |
| 20260904023003 | 70 | 277 | 0.0 | 1.0 | 0.00 | 1.70 | 1.27 | 95 | 1014.4 |
| 20260904022829 | 70 | 277 | 0.0 | 1.0 | 0.00 | 1.70 | 1.27 | 95 | 1014.4 |
| 20260904022503 | 70 | 277 | 0.0 | 1.0 | 0.00 | 1.70 | 1.27 | 95 | 1014.4 |
| 20260904022329 | 70 | 277 | 0.0 | 1.0 | 0.00 | 1.70 | 1.27 | 95 | 1014.4 |
| 20260904022004 | 70 | 0 | 0.0 | 0.0 | 0.00 | 1.70 | 1.27 | 95 | 1014.5 |
| 20260904021829 | 70 | 0 | 0.0 | 0.0 | 0.00 | 1.70 | 1.27 | 95 | 1014.6 |
| 20260904021503 | 70 | 0 | 0.0 | 0.0 | 0.00 | 1.70 | 1.27 | 95 | 1014.5 |
| 20260904021329 | 70 | 0 | 0.0 | 0.0 | 0.00 | 1.70 | 1.27 | 95 | 1014.6 |
| 20260904021003 | 70 | 277 | 0.0 | 1.0 | 0.00 | 1.70 | 1.27 | 95 | 1014.5 |
| 20260904020829 | 70 | 277 | 0.0 | 1.0 | 0.00 | 1.70 | 1.27 | 95 | 1014.6 |
| 20260904020503 | 70 | 277 | 0.0 | 1.0 | 0.00 | 1.70 | 1.27 | 95 | 1014.5 |
| 20260904020329 | 70 | 277 | 0.0 | 1.0 | 0.00 | 1.70 | 1.27 | 95 | 1014.5 |
| 20260904020003 | 70 | 277 | 0.0 | 1.0 | 0.00 | 1.70 | 1.27 | 95 | 1014.6 |
| 20260904015829 | 70 | 277 | 0.0 | 1.0 | 0.00 | 1.70 | 1.27 | 95 | 1014.6 |
| 20260904015503 | 70 | 277 | 0.0 | 1.0 | 0.00 | 1.70 | 1.27 | 95 | 1014.6 |
| 20260904015329 | 70 | 277 | 0.0 | 1.0 | 0.00 | 1.70 | 1.27 | 95 | 1014.7 |
| 20260904015004 | 70 | 277 | 0.0 | 2.0 | 0.00 | 1.70 | 1.27 | 95 | 1014.7 |
| 20260904014828 | 70 | 277 | 0.0 | 2.0 | 0.00 | 1.70 | 1.27 | 95 | 1014.7 |
| 20260904014503 | 70 | 277 | 0.0 | 2.0 | 0.00 | 1.70 | 1.27 | 95 | 1014.5 |
| 20260904014328 | 70 | 277 | 0.0 | 3.0 | 0.00 | 1.70 | 1.27 | 95 | 1014.4 |
| 20260904014003 | 70 | 277 | 1.0 | 3.0 | 0.00 | 1.70 | 1.27 | 95 | 1014.4 |
| 20260904013828 | 70 | 277 | 1.0 | 3.0 | 0.00 | 1.70 | 1.27 | 95 | 1014.5 |
| 20260904013504 | 70 | 277 | 1.0 | 3.0 | 0.00 | 1.70 | 1.27 | 95 | 1014.6 |
| 20260904013328 | 70 | 277 | 0.0 | 3.0 | 0.00 | 1.70 | 1.27 | 95 | 1014.5 |
| 20260904013003 | 70 | 0 | 0.0 | 0.0 | 0.00 | 1.70 | 1.27 | 95 | 1014.4 |
| 20260904012828 | 70 | 0 | 0.0 | 0.0 | 0.00 | 1.70 | 1.27 | 95 | 1014.4 |
| 20260904012503 | 70 | 0 | 0.0 | 0.0 | 0.00 | 1.70 | 1.27 | 95 | 1014.3 |
| 20260904012328 | 71 | 0 | 0.0 | 0.0 | 0.00 | 1.70 | 1.27 | 95 | 1014.2 |
| 20260904012006 | 71 | 0 | 0.0 | 0.0 | 0.00 | 1.70 | 1.27 | 95 | 1014.2 |
| 20260904011828 | 71 | 0 | 0.0 | 0.0 | 0.00 | 1.70 | 1.27 | 95 | 1014.4 |
| 20260904011503 | 71 | 0 | 0.0 | 0.0 | 0.00 | 1.70 | 1.27 | 95 | 1014.4 |
| 20260904011328 | 71 | 0 | 0.0 | 0.0 | 0.00 | 1.70 | 1.27 | 95 | 1014.3 |
| 20260904011006 | 71 | 0 | 0.0 | 0.0 | 0.00 | 1.70 | 1.27 | 95 | 1014.2 |
| 20260904010828 | 71 | 0 | 0.0 | 0.0 | 0.00 | 1.70 | 1.27 | 95 | 1014.3 |
| 20260904010524 | 71 | 0 | 0.0 | 0.0 | 0.00 | 1.70 | 1.27 | 95 | 1014.2 |
| 20260904010328 | 71 | 277 | 0.0 | 2.0 | 0.00 | 1.70 | 1.27 | 95 | 1014.4 |
| 20260904010004 | 71 | 277 | 0.0 | 2.0 | 0.00 | 1.70 | 1.27 | 95 | 1014.3 |
| 20260904005828 | 71 | 277 | 1.0 | 3.0 | 0.00 | 1.70 | 1.27 | 95 | 1014.2 |
| 20260904005503 | 71 | 277 | 1.0 | 3.0 | 0.00 | 1.70 | 1.27 | 95 | 1014.3 |
| 20260904005328 | 71 | 277 | 1.0 | 3.0 | 0.00 | 1.70 | 1.27 | 95 | 1014.2 |
| 20260904005001 | 71 | 277 | 1.0 | 3.0 | 0.00 | 1.70 | 1.27 | 95 | 1014.3 |
| 20260904004758 | 71 | 276 | 1.0 | 3.0 | 0.00 | 1.70 | 1.27 | 95 | 1014.1 |
| 20260904004501 | 71 | 276 | 1.0 | 3.0 | 0.00 | 1.70 | 1.27 | 95 | 1014.0 |
| 20260904004258 | 71 | 277 | 2.0 | 8.0 | 0.00 | 1.70 | 1.27 | 95 | 1013.8 |
| 20260904004001 | 71 | 278 | 2.0 | 8.0 | 0.00 | 1.70 | 1.27 | 95 | 1013.7 |
| 20260904003758 | 71 | 280 | 2.0 | 8.0 | 0.00 | 1.70 | 1.27 | 95 | 1013.7 |
| 20260904003501 | 71 | 285 | 2.0 | 8.0 | 0.00 | 1.70 | 1.27 | 95 | 1013.7 |
| 20260904003257 | 71 | 306 | 1.0 | 5.0 | 0.00 | 1.70 | 1.27 | 95 | 1013.5 |
| 20260904003001 | 71 | 307 | 2.0 | 5.0 | 0.00 | 1.70 | 1.27 | 95 | 1013.5 |
| 20260904002757 | 71 | 311 | 2.0 | 6.0 | 0.00 | 1.70 | 1.27 | 95 | 1013.6 |
| 20260904002501 | 71 | 304 | 2.0 | 6.0 | 0.00 | 1.70 | 1.27 | 95 | 1013.6 |
| 20260904002257 | 71 | 294 | 2.0 | 6.0 | 0.00 | 1.70 | 1.27 | 95 | 1013.5 |
| 20260904002022 | 71 | 291 | 2.0 | 6.0 | 0.00 | 1.70 | 1.27 | 95 | 1013.6 |
| 20260904001757 | 71 | 224 | 1.0 | 4.0 | 0.00 | 1.70 | 1.27 | 95 | 1013.4 |
| 20260904001501 | 71 | 179 | 0.0 | 3.0 | 0.00 | 1.70 | 1.27 | 95 | 1013.2 |
| 20260904001257 | 71 | 179 | 1.0 | 3.0 | 0.00 | 1.70 | 1.27 | 95 | 1013.1 |
| 20260904001001 | 71 | 178 | 1.0 | 4.0 | 0.00 | 1.70 | 1.27 | 95 | 1013.1 |
| 20260904000757 | 71 | 177 | 2.0 | 6.0 | 0.00 | 1.70 | 1.27 | 95 | 1013.1 |
| 20260904000502 | 71 | 177 | 2.0 | 6.0 | 0.00 | 1.70 | 1.27 | 95 | 1013.1 |
| 20260904000257 | 71 | 176 | 2.0 | 6.0 | 0.00 | 1.70 | 1.27 | 95 | 1013.2 |
| 20260904000004 | 71 | 176 | 2.0 | 6.0 | 0.00 | 1.70 | 1.27 | 95 | 1013.2 |
| 20260903235757 | 71 | 175 | 2.0 | 6.0 | 0.00 | 1.70 | 1.27 | 94 | 1013.3 |
| 20260903235501 | 71 | 175 | 1.0 | 6.0 | 0.00 | 1.70 | 1.27 | 94 | 1013.3 |
| 20260903235257 | 71 | 174 | 1.0 | 6.0 | 0.00 | 1.70 | 1.27 | 94 | 1013.4 |
| 20260903235001 | 72 | 174 | 1.0 | 6.0 | 0.00 | 1.70 | 1.27 | 95 | 1013.3 |
| 20260903234757 | 72 | 173 | 1.0 | 3.0 | 0.00 | 1.70 | 1.27 | 95 | 1013.4 |
| 20260903234501 | 72 | 173 | 1.0 | 3.0 | 0.00 | 1.70 | 1.27 | 95 | 1013.4 |
| 20260903234257 | 72 | 171 | 1.0 | 5.0 | 0.00 | 1.70 | 1.27 | 95 | 1013.4 |
| 20260903234001 | 72 | 170 | 2.0 | 5.0 | 0.00 | 1.70 | 1.27 | 95 | 1013.5 |
| 20260903233757 | 72 | 167 | 2.0 | 5.0 | 0.00 | 1.70 | 1.27 | 95 | 1013.3 |
| 20260903233522 | 72 | 166 | 2.0 | 5.0 | 0.00 | 1.70 | 1.27 | 95 | 1013.3 |
| 20260903233257 | 72 | 165 | 2.0 | 6.0 | 0.00 | 1.70 | 1.27 | 95 | 1013.2 |
| 20260903233022 | 72 | 165 | 2.0 | 6.0 | 0.00 | 1.70 | 1.27 | 95 | 1013.2 |
| 20260903232757 | 72 | 164 | 1.0 | 6.0 | 0.00 | 1.70 | 1.27 | 95 | 1013.2 |
| 20260903232501 | 72 | 164 | 1.0 | 6.0 | 0.00 | 1.70 | 1.27 | 95 | 1013.2 |
| 20260903232256 | 72 | 164 | 1.0 | 4.0 | 0.00 | 1.70 | 1.27 | 95 | 1013.2 |
| 20260903232001 | 72 | 171 | 1.0 | 7.0 | 0.00 | 1.70 | 1.27 | 95 | 1013.2 |
| 20260903231756 | 72 | 175 | 1.0 | 7.0 | 0.00 | 1.70 | 1.27 | 95 | 1013.3 |
| 20260903231522 | 72 | 179 | 2.0 | 7.0 | 0.00 | 1.70 | 1.27 | 95 | 1013.2 |
| 20260903231256 | 72 | 189 | 1.0 | 7.0 | 0.00 | 1.70 | 1.27 | 95 | 1013.2 |
| 20260903231001 | 72 | 196 | 1.0 | 4.0 | 0.00 | 1.70 | 1.27 | 95 | 1013.1 |
| 20260903230756 | 72 | 201 | 1.0 | 4.0 | 0.00 | 1.70 | 1.27 | 95 | 1013.0 |
| 20260903230501 | 72 | 206 | 1.0 | 3.0 | 0.00 | 1.70 | 1.27 | 95 | 1013.1 |
| 20260903230256 | 72 | 215 | 1.0 | 3.0 | 0.00 | 1.70 | 1.27 | 95 | 1013.1 |
| 20260903230022 | 72 | 221 | 1.0 | 3.0 | 0.00 | 1.70 | 1.27 | 95 | 1013.0 |
| 20260903225756 | 72 | 236 | 1.0 | 3.0 | 0.00 | 1.70 | 1.27 | 95 | 1013.1 |
| 20260903225523 | 72 | 239 | 0.0 | 2.0 | 0.00 | 1.70 | 1.27 | 95 | 1013.3 |
| 20260903225256 | 72 | 239 | 0.0 | 1.0 | 0.00 | 1.70 | 1.27 | 95 | 1013.5 |
| 20260903225001 | 72 | 239 | 0.0 | 1.0 | 0.00 | 1.70 | 1.27 | 95 | 1013.6 |
| 20260903224756 | 72 | 239 | 0.0 | 2.0 | 0.00 | 1.70 | 1.27 | 95 | 1013.5 |
| 20260903224504 | 72 | 239 | 0.0 | 3.0 | 0.00 | 1.70 | 1.27 | 95 | 1013.5 |
| 20260903224256 | 72 | 239 | 1.0 | 3.0 | 0.00 | 1.70 | 1.27 | 95 | 1013.7 |
| 20260903224001 | 72 | 239 | 1.0 | 3.0 | 0.00 | 1.70 | 1.27 | 95 | 1013.9 |
| 20260903223756 | 72 | 239 | 1.0 | 3.0 | 0.00 | 1.70 | 1.27 | 95 | 1013.9 |
| 20260903223501 | 72 | 239 | 0.0 | 3.0 | 0.00 | 1.70 | 1.27 | 95 | 1013.9 |
| 20260903223256 | 72 | 239 | 0.0 | 3.0 | 0.00 | 1.70 | 1.27 | 95 | 1013.7 |
| 20260903223001 | 72 | 239 | 0.0 | 3.0 | 0.00 | 1.70 | 1.27 | 95 | 1013.8 |
| 20260903222756 | 72 | 239 | 0.0 | 3.0 | 0.00 | 1.70 | 1.27 | 95 | 1014.0 |
| 20260903222502 | 72 | 239 | 0.0 | 2.0 | 0.00 | 1.70 | 1.27 | 95 | 1013.9 |
| 20260903222256 | 71 | 233 | 1.0 | 4.0 | 0.00 | 1.70 | 1.27 | 95 | 1014.0 |
| 20260903222023 | 71 | 233 | 1.0 | 4.0 | 0.00 | 1.70 | 1.27 | 95 | 1014.0 |
| 20260903221756 | 71 | 229 | 1.0 | 4.0 | 0.00 | 1.70 | 1.27 | 95 | 1014.1 |
| 20260903221504 | 71 | 227 | 1.0 | 4.0 | 0.00 | 1.70 | 1.27 | 95 | 1014.1 |
| 20260903221256 | 71 | 190 | 0.0 | 2.0 | 0.00 | 1.70 | 1.27 | 95 | 1014.2 |
| 20260903221002 | 71 | 190 | 0.0 | 2.0 | 0.00 | 1.70 | 1.27 | 95 | 1014.3 |
| 20260903220756 | 71 | 190 | 0.0 | 2.0 | 0.00 | 1.70 | 1.27 | 95 | 1014.4 |
| 20260903220501 | 71 | 190 | 0.0 | 2.0 | 0.00 | 1.70 | 1.27 | 95 | 1014.5 |
| 20260903220255 | 71 | 0 | 0.0 | 0.0 | 0.00 | 1.70 | 1.27 | 94 | 1014.7 |
| 20260903215755 | 71 | 190 | 0.0 | 2.0 | 0.00 | 1.70 | 1.27 | 94 | 1014.7 |
| 20260903215502 | 71 | 190 | 0.0 | 2.0 | 0.00 | 1.70 | 1.27 | 94 | 1014.8 |
| 20260903215255 | 71 | 190 | 1.0 | 4.0 | 0.00 | 1.70 | 1.27 | 94 | 1015.0 |
| 20260903215001 | 71 | 190 | 1.0 | 4.0 | 0.00 | 1.70 | 1.27 | 94 | 1014.9 |
| 20260903214755 | 71 | 190 | 1.0 | 4.0 | 0.01 | 1.70 | 1.27 | 94 | 1014.8 |
| 20260903214501 | 71 | 191 | 1.0 | 4.0 | 0.01 | 1.70 | 1.27 | 94 | 1014.8 |
| 20260903214255 | 71 | 198 | 2.0 | 4.0 | 0.01 | 1.70 | 1.27 | 94 | 1014.9 |
| 20260903214002 | 71 | 210 | 1.0 | 4.0 | 0.01 | 1.70 | 1.27 | 94 | 1015.0 |
| 20260903213755 | 71 | 238 | 1.0 | 4.0 | 0.02 | 1.70 | 1.27 | 94 | 1015.0 |
| 20260903213502 | 71 | 270 | 1.0 | 3.0 | 0.02 | 1.70 | 1.27 | 94 | 1015.0 |
| 20260903213255 | 71 | 317 | 1.0 | 2.0 | 0.05 | 1.70 | 1.27 | 94 | 1014.9 |
| 20260903213022 | 71 | 318 | 1.0 | 2.0 | 0.07 | 1.70 | 1.27 | 94 | 1014.9 |
| 20260903212755 | 70 | 318 | 1.0 | 4.0 | 0.12 | 1.70 | 1.27 | 94 | 1014.8 |
| 20260903212501 | 71 | 318 | 2.0 | 4.0 | 0.25 | 1.70 | 1.27 | 94 | 1014.7 |
| 20260903212255 | 70 | 318 | 2.0 | 4.0 | 0.40 | 1.70 | 1.27 | 94 | 1014.8 |
| 20260903212002 | 70 | 318 | 2.0 | 4.0 | 0.53 | 1.70 | 1.27 | 94 | 1015.0 |
| 20260903211755 | 70 | 318 | 2.0 | 4.0 | 0.63 | 1.70 | 1.27 | 94 | 1014.9 |
| 20260903211522 | 70 | 319 | 1.0 | 4.0 | 0.64 | 1.70 | 1.27 | 93 | 1014.7 |
| 20260903211255 | 70 | 319 | 1.0 | 4.0 | 0.66 | 1.70 | 1.27 | 93 | 1014.7 |
| 20260903211001 | 70 | 320 | 2.0 | 5.0 | 0.66 | 1.70 | 1.27 | 93 | 1014.6 |
| 20260903210755 | 70 | 318 | 2.0 | 6.0 | 0.66 | 1.70 | 1.27 | 93 | 1014.6 |
| 20260903210505 | 70 | 318 | 2.0 | 6.0 | 0.66 | 1.70 | 1.27 | 93 | 1014.7 |
| 20260903210255 | 70 | 319 | 2.0 | 6.0 | 0.66 | 1.70 | 1.27 | 93 | 1014.9 |
| 20260903210002 | 70 | 315 | 2.0 | 6.0 | 0.66 | 1.70 | 1.27 | 93 | 1014.8 |
| 20260903205754 | 71 | 316 | 2.0 | 5.0 | 0.66 | 1.70 | 1.27 | 93 | 1014.6 |
| 20260903205522 | 71 | 322 | 2.0 | 5.0 | 0.66 | 1.70 | 1.27 | 93 | 1014.7 |
| 20260903205254 | 71 | 330 | 2.0 | 5.0 | 0.66 | 1.70 | 1.27 | 93 | 1014.9 |
| 20260903205025 | 71 | 348 | 2.0 | 5.0 | 0.66 | 1.70 | 1.27 | 93 | 1014.9 |
| 20260903204754 | 71 | 63 | 1.0 | 6.0 | 0.65 | 1.69 | 1.26 | 92 | 1014.2 |
| 20260903204502 | 71 | 63 | 1.0 | 6.0 | 0.65 | 1.69 | 1.26 | 92 | 1013.8 |
| 20260903204254 | 71 | 41 | 2.0 | 6.0 | 0.65 | 1.69 | 1.26 | 92 | 1013.9 |
| 20260903204001 | 71 | 25 | 2.0 | 6.0 | 0.65 | 1.69 | 1.26 | 92 | 1013.8 |
| 20260903203754 | 71 | 4 | 2.0 | 6.0 | 0.64 | 1.68 | 1.25 | 92 | 1014.3 |
| 20260903203501 | 71 | 339 | 4.0 | 15.0 | 0.63 | 1.67 | 1.24 | 91 | 1014.5 |
| 20260903203254 | 72 | 322 | 7.0 | 21.0 | 0.61 | 1.65 | 1.22 | 90 | 1015.2 |
| 20260903203009 | 72 | 319 | 8.0 | 21.0 | 0.59 | 1.63 | 1.20 | 90 | 1015.4 |
| 20260903202754 | 72 | 317 | 11.0 | 21.0 | 0.50 | 1.54 | 1.11 | 89 | 1016.1 |
| 20260903202502 | 72 | 319 | 11.0 | 21.0 | 0.41 | 1.45 | 1.02 | 89 | 1016.2 |
| 20260903202254 | 73 | 323 | 7.0 | 20.0 | 0.20 | 1.24 | 0.81 | 88 | 1016.0 |
| 20260903202002 | 73 | 328 | 6.0 | 20.0 | 0.08 | 1.12 | 0.69 | 87 | 1015.7 |
| 20260903201754 | 74 | 344 | 3.0 | 15.0 | 0.03 | 1.07 | 0.64 | 87 | 1014.3 |
| 20260903201502 | 74 | 354 | 3.0 | 11.0 | 0.02 | 1.06 | 0.63 | 87 | 1014.1 |
| 20260903201254 | 74 | 2 | 3.0 | 11.0 | 0.00 | 1.04 | 0.61 | 87 | 1014.1 |
| 20260903201002 | 74 | 4 | 3.0 | 11.0 | 0.00 | 1.04 | 0.61 | 87 | 1014.1 |
| 20260903200754 | 74 | 21 | 1.0 | 8.0 | 0.00 | 1.04 | 0.61 | 88 | 1013.9 |
| 20260903200523 | 74 | 29 | 1.0 | 8.0 | 0.00 | 1.04 | 0.61 | 88 | 1013.6 |
| 20260903200254 | 74 | 40 | 1.0 | 5.0 | 0.00 | 1.04 | 0.61 | 88 | 1013.2 |
| 20260903200001 | 74 | 46 | 1.0 | 5.0 | 0.00 | 1.04 | 0.61 | 88 | 1013.3 |
| 20260903195754 | 74 | 60 | 1.0 | 5.0 | 0.00 | 1.04 | 0.61 | 88 | 1013.3 |
| 20260903195523 | 74 | 87 | 1.0 | 5.0 | 0.00 | 1.04 | 0.61 | 88 | 1013.1 |
| 20260903195253 | 74 | 120 | 0.0 | 2.0 | 0.00 | 1.04 | 0.61 | 88 | 1012.5 |
| 20260903195002 | 74 | 120 | 0.0 | 2.0 | 0.00 | 1.04 | 0.61 | 88 | 1012.2 |
| 20260903194753 | 74 | 120 | 0.0 | 2.0 | 0.00 | 1.04 | 0.61 | 88 | 1012.2 |
| 20260903194505 | 75 | 120 | 0.0 | 2.0 | 0.00 | 1.04 | 0.61 | 88 | 1012.3 |
| 20260903194253 | 75 | 120 | 0.0 | 2.0 | 0.00 | 1.04 | 0.61 | 88 | 1012.5 |
| 20260903194001 | 75 | 120 | 1.0 | 2.0 | 0.00 | 1.04 | 0.61 | 88 | 1012.7 |
| 20260903193753 | 75 | 120 | 1.0 | 2.0 | 0.00 | 1.04 | 0.61 | 88 | 1012.9 |
| 20260903193502 | 75 | 120 | 1.0 | 2.0 | 0.00 | 1.04 | 0.61 | 88 | 1012.7 |
| 20260903193253 | 75 | 120 | 1.0 | 2.0 | 0.00 | 1.04 | 0.61 | 88 | 1012.8 |
| 20260903193002 | 75 | 120 | 0.0 | 2.0 | 0.00 | 1.04 | 0.61 | 88 | 1012.7 |
| 20260903192753 | 75 | 120 | 0.0 | 2.0 | 0.00 | 1.04 | 0.61 | 88 | 1012.7 |
| 20260903192501 | 75 | 120 | 0.0 | 3.0 | 0.00 | 1.04 | 0.61 | 88 | 1012.6 |
| 20260903192253 | 75 | 120 | 1.0 | 3.0 | 0.00 | 1.04 | 0.61 | 87 | 1012.7 |
| 20260903192026 | 75 | 120 | 1.0 | 3.0 | 0.00 | 1.04 | 0.61 | 87 | 1012.8 |
| 20260903191753 | 75 | 120 | 1.0 | 3.0 | 0.00 | 1.04 | 0.61 | 87 | 1013.0 |
| 20260903191502 | 75 | 120 | 1.0 | 3.0 | 0.00 | 1.04 | 0.61 | 87 | 1013.0 |
| 20260903191253 | 75 | 120 | 1.0 | 3.0 | 0.00 | 1.04 | 0.61 | 87 | 1013.1 |
| 20260903191002 | 75 | 120 | 1.0 | 3.0 | 0.00 | 1.04 | 0.61 | 87 | 1013.1 |
| 20260903190753 | 75 | 116 | 1.0 | 4.0 | 0.00 | 1.04 | 0.61 | 87 | 1013.2 |
| 20260903190502 | 75 | 114 | 1.0 | 4.0 | 0.00 | 1.04 | 0.61 | 86 | 1013.2 |
| 20260903190253 | 76 | 104 | 1.0 | 4.0 | 0.00 | 1.04 | 0.61 | 86 | 1013.2 |
| 20260903190002 | 76 | 102 | 1.0 | 4.0 | 0.00 | 1.04 | 0.61 | 86 | 1013.1 |
| 20260903185753 | 76 | 97 | 1.0 | 3.0 | 0.00 | 1.04 | 0.61 | 85 | 1013.1 |
| 20260903185502 | 76 | 97 | 2.0 | 3.0 | 0.00 | 1.04 | 0.61 | 85 | 1013.0 |
| 20260903185253 | 76 | 96 | 1.0 | 3.0 | 0.00 | 1.04 | 0.61 | 85 | 1013.1 |
| 20260903185022 | 76 | 96 | 1.0 | 3.0 | 0.00 | 1.04 | 0.61 | 85 | 1013.1 |
| 20260903184753 | 76 | 103 | 1.0 | 4.0 | 0.00 | 1.04 | 0.61 | 85 | 1013.1 |
| 20260903184509 | 76 | 115 | 1.0 | 4.0 | 0.00 | 1.04 | 0.61 | 85 | 1013.2 |
| 20260903184253 | 76 | 117 | 1.0 | 4.0 | 0.00 | 1.04 | 0.61 | 86 | 1013.3 |
| 20260903184002 | 76 | 114 | 1.0 | 4.0 | 0.00 | 1.04 | 0.61 | 85 | 1013.3 |
| 20260903183753 | 76 | 107 | 1.0 | 4.0 | 0.00 | 1.04 | 0.61 | 84 | 1013.3 |
| 20260903183502 | 77 | 91 | 1.0 | 3.0 | 0.00 | 1.04 | 0.61 | 85 | 1013.4 |
| 20260903183252 | 77 | 73 | 1.0 | 3.0 | 0.00 | 1.04 | 0.61 | 86 | 1013.6 |
| 20260903183004 | 77 | 68 | 1.0 | 3.0 | 0.00 | 1.04 | 0.61 | 87 | 1013.7 |
| 20260903182752 | 77 | 71 | 1.0 | 4.0 | 0.00 | 1.04 | 0.61 | 87 | 1013.5 |
| 20260903182502 | 76 | 69 | 1.0 | 7.0 | 0.00 | 1.04 | 0.61 | 87 | 1013.3 |
| 20260903182252 | 76 | 50 | 1.0 | 7.0 | 0.00 | 1.04 | 0.61 | 87 | 1013.3 |
| 20260903182001 | 76 | 46 | 1.0 | 7.0 | 0.00 | 1.04 | 0.61 | 88 | 1013.4 |
| 20260903181752 | 76 | 14 | 1.0 | 7.0 | 0.00 | 1.04 | 0.61 | 89 | 1013.2 |
| 20260903181502 | 76 | 338 | 1.0 | 5.0 | 0.03 | 1.04 | 0.61 | 92 | 1013.1 |
| 20260903181252 | 75 | 349 | 2.0 | 9.0 | 0.06 | 1.04 | 0.61 | 91 | 1013.0 |
| 20260903181002 | 75 | 344 | 2.0 | 9.0 | 0.06 | 1.04 | 0.61 | 91 | 1013.0 |
| 20260903180752 | 75 | 351 | 2.0 | 9.0 | 0.06 | 1.04 | 0.61 | 91 | 1013.1 |
| 20260903180523 | 75 | 351 | 2.0 | 9.0 | 0.06 | 1.04 | 0.61 | 92 | 1013.2 |
| 20260903180252 | 75 | 190 | 0.0 | 4.0 | 0.07 | 1.04 | 0.61 | 94 | 1013.0 |
| 20260903180002 | 75 | 190 | 0.0 | 2.0 | 0.12 | 1.04 | 0.61 | 95 | 1012.9 |
| 20260903175752 | 74 | 190 | 1.0 | 3.0 | 0.19 | 1.04 | 0.61 | 95 | 1012.8 |
| 20260903175501 | 74 | 190 | 1.0 | 3.0 | 0.20 | 1.04 | 0.61 | 95 | 1012.8 |
| 20260903175252 | 74 | 190 | 1.0 | 3.0 | 0.20 | 1.04 | 0.61 | 95 | 1012.9 |
| 20260903175002 | 74 | 190 | 1.0 | 4.0 | 0.20 | 1.04 | 0.61 | 96 | 1012.9 |
| 20260903174752 | 73 | 190 | 1.0 | 4.0 | 0.20 | 1.04 | 0.61 | 95 | 1012.8 |
| 20260903174526 | 72 | 190 | 1.0 | 4.0 | 0.20 | 1.04 | 0.61 | 95 | 1012.8 |
| 20260903174252 | 72 | 190 | 1.0 | 4.0 | 0.20 | 1.04 | 0.61 | 93 | 1012.9 |
| 20260903174023 | 72 | 190 | 1.0 | 3.0 | 0.21 | 1.04 | 0.61 | 94 | 1012.9 |
| 20260903173752 | 72 | 190 | 1.0 | 3.0 | 0.21 | 1.04 | 0.61 | 94 | 1012.9 |
| 20260903173501 | 72 | 190 | 1.0 | 4.0 | 0.22 | 1.04 | 0.61 | 94 | 1012.9 |
| 20260903173252 | 71 | 190 | 1.0 | 4.0 | 0.22 | 1.04 | 0.61 | 94 | 1012.9 |
| 20260903173002 | 71 | 190 | 1.0 | 4.0 | 0.22 | 1.04 | 0.61 | 93 | 1012.9 |
| 20260903172752 | 71 | 190 | 1.0 | 4.0 | 0.22 | 1.04 | 0.61 | 93 | 1013.0 |
| 20260903172501 | 71 | 190 | 1.0 | 4.0 | 0.22 | 1.04 | 0.61 | 93 | 1013.1 |
| 20260903172251 | 70 | 190 | 1.0 | 3.0 | 0.22 | 1.04 | 0.61 | 93 | 1013.0 |
| 20260903172001 | 70 | 190 | 1.0 | 3.0 | 0.22 | 1.04 | 0.61 | 92 | 1013.1 |
| 20260903171751 | 70 | 190 | 1.0 | 3.0 | 0.22 | 1.04 | 0.61 | 92 | 1013.2 |
| 20260903171502 | 70 | 190 | 1.0 | 3.0 | 0.19 | 1.01 | 0.58 | 92 | 1013.5 |
| 20260903171251 | 70 | 194 | 2.0 | 3.0 | 0.16 | 0.98 | 0.55 | 91 | 1013.0 |